Home   Weather   Tuzla   Past weeks

Flag for Bosnia-Herzegovina Past Weather in Tuzla, Bosnia-Herzegovina — Yesterday and Last 2 Weeks

Now
37 °F

Clear.


Feels Like: 35 °F
Forecast: 20 / 40 °F
Wind: 3 mph from West

Location: Tuzla

Current Time: Dec 3, 2016 at 1:34:01 am

Latest Report: Dec 3, 2016 at 12:00 am


Visibility: 10 mi

Pressure: 30.12 "Hg

Humidity: 56%

Dew Point: 23 °F

Location of TuzlaLocation

Past Weather in Tuzla — Graph

°F

Tuzla Temperature Yesterday

Maximum temperature yesterday: 48 °F (at 1:30 pm)
Minimum temperature yesterday: 27 °F (at 5:00 am)
Average temperature yesterday: 41 °F

High & Low Weather Summary for the Past Weeks

 TemperatureHumidityPressure
High70 °F (Nov 18, 3:00 pm)100% (Nov 18, 5:00 am)30.51 "Hg (Nov 18, 5:00 am)
Low21 °F (Nov 30, 4:30 am)27% (Nov 18, 3:00 pm)29.83 "Hg (Nov 27, 3:00 pm)
Average46 °F70%30.10 "Hg
* Reported Nov 18 4:30 am — Dec 3 12:00 am, Tuzla, Weather by CustomWeather, © 2016

Note: Actual official high and low records may vary slightly from our data, if they occured in-between our weather recording intervals... More about our weather records

Advertising

Tuzla Weather History for the Previous 24 Hours

Scroll right to see more
 ConditionsComfort  
Time TempWeatherWind HumidityBarometerVisibility
12:00 am
Sat, Dec 3
37 °FClear.3 mph56%30.12 "Hg10 mi
11:00 pm
Fri, Dec 2
39 °FPassing clouds.3 mph52%30.12 "HgN/A
10:00 pm41 °FClear.3 mph45%30.12 "Hg10 mi
9:00 pm43 °FPassing clouds.9 mph46%30.09 "HgN/A
8:30 pm43 °FPassing clouds.8 mph46%30.09 "HgN/A
8:00 pm43 °FClear.9 mph46%30.09 "Hg10 mi
7:30 pm43 °FClear.7 mph46%30.07 "Hg10 mi
7:00 pm43 °FPassing clouds.8 mph46%30.04 "HgN/A
6:30 pm45 °FPassing clouds.6 mph46%30.04 "HgN/A
6:00 pm45 °FPassing clouds.7 mph46%30.04 "HgN/A
5:30 pm45 °FPassing clouds.9 mph46%30.04 "HgN/A
5:00 pm46 °FPassing clouds.10 mph43%30.01 "HgN/A
4:30 pm46 °FPassing clouds.9 mph40%29.98 "HgN/A
4:00 pm48 °FClear.13 mph40%29.95 "Hg5 mi
3:30 pm48 °FClear.3 mph46%29.92 "Hg4 mi
3:00 pm48 °FFog.3 mph46%29.92 "Hg3 mi
2:30 pm48 °FFog.5 mph46%29.89 "Hg3 mi
2:00 pm48 °FFog.5 mph46%29.89 "Hg3 mi
1:30 pm48 °FScattered clouds.6 mph46%29.89 "Hg4 mi
1:00 pm46 °FScattered clouds.6 mph46%29.89 "Hg4 mi
12:30 pm45 °FScattered clouds.5 mph53%29.89 "Hg4 mi
12:00 pm45 °FScattered clouds.3 mph53%29.89 "Hg4 mi
11:30 am41 °FScattered clouds.2 mph61%29.86 "Hg4 mi
11:00 am41 °FScattered clouds.2 mph61%29.86 "Hg4 mi
10:30 am39 °FClear.2 mph70%29.86 "Hg4 mi
10:00 am37 °FClear.2 mph70%29.86 "Hg4 mi
9:00 am34 °FFog.1 mph81%29.86 "Hg3 mi
8:00 am28 °FIce fog.1 mph86%29.83 "Hg3 mi
7:00 am30 °FIce fog.1 mph93%29.83 "Hg2 mi
6:00 am28 °FIce fog.1 mph93%29.83 "Hg2 mi
5:30 am28 °FIce fog.2 mph93%29.83 "Hg2 mi
5:00 am27 °FIce fog.2 mph93%29.83 "Hg2 mi
4:30 am28 °FIce fog.1 mph93%29.83 "Hg2 mi
Weather by CustomWeather, © 2016

See weather overviewHow to use our weather pages